Location: Nairn
(57.5833°N, 3.8667°W)
Time: 09:46:17
(UTC+00:00)

Vanguard 1 - Pass Details

Date: 30 November 2020
Orbit: 649 x 3834 km, 34.3° (Epoch: 15 January)

Event Time Altitude Azimuth Distance (km) Brightness Sun altitude
Rises 08:55:16 0° 244° (WSW) 4,402 13.2 1.4°
Reaches altitude 10° 08:59:14 10° 225° (SW) 3,904 13.2 1.8°
Maximum altitude 09:05:20 17° 189° (S) 4,059 13.8 2.4°
Drops below altitude 10° 09:13:31 10° 157° (SSE) 5,469 15.7 3.1°
Sets 09:21:03 0° 141° (SE) 7,124 17.9 3.7°
